Weather History for Indianapolis, IN

Change the Weather History Date:

Monday, November 12, 2012

  Actual Average Record
Temperature  
Mean Temperature 43 °F 45 °F  
Max Temperature 57 °F 54 °F 75 °F (1949)
Min Temperature 29 °F 37 °F 14 °F (1911)
Degree Days  
Heating Degree Days 22 20  
Month to date heating degree days 254 209  
Since 1 July heating degree days 719 610  
Cooling Degree Days 0 0  
Month to date cooling degree days 0 0  
Year to date cooling degree days 1534 1065  
Moisture  
Dew Point 37 °F    
Average Humidity 74    
Maximum Humidity 100    
Minimum Humidity 48    
Precipitation  
Precipitation 0.90 in 0.12 in 1.64 in (1925)
Month to date precipitation 1.07 1.39  
Year to date precipitation 35.16 36.96  
Snow  
Snow 0.20 in 0.10 in 0.80 in (1991)
Month to date snowfall 0.2 0.2  
Since 1 July snowfall 0.2 0.6  
Since 1 September snowfall 0.2 0.6  
Snow Depth 0.00 in    
Sea Level Pressure  
Sea Level Pressure 30.14 in    
Wind  
Wind Speed 14 mph (West)    
Max Wind Speed 24 mph    
Max Gust Speed 31 mph    
Visibility 7 miles    
Events Rain , Snow    
T = Trace of Precipitation, MM = Missing Value Source: NWS Daily Summary

Daily Weather History Graph

Daily Weather History Graph

Search for Another Location

Airport:

Trip Planner

Search our weather history database for the weather conditions in past years. The results will help you decide how hot, cold, wet, or windy it might be!

Date:

Astronomy

Nov. 12, 2012 Rise Set
Actual Time 7:26 AM EST 5:31 PM EST
Civil Twilight 6:58 AM EST 6:00 PM EST
Nautical Twilight 6:25 AM EST 6:32 PM EST
Astronomical Twilight 5:53 AM EST 7:04 PM EST
Moon 5:51 AM EST (11/12) 4:36 PM EST (11/12)
Length of Visible Light 11h 02m
Length of Day
10h 04m
Waning Crescent, 2% of the Moon is Illuminated
Nov 12
Waning Crescent
Nov 13
New
Nov 20
First Quarter
Nov 28
Full
Dec 6
Last Quarter

Hourly Weather History & Observations

Time (EST) Temp. Windchill Dew Point Humidity Pressure Visibility Wind Dir Wind Speed Gust Speed Precip Events Conditions
12:54 AM 55.9 °F - 53.1 °F 90% 29.95 in 9.0 mi South 16.1 mph - 0.07 in Rain Light Rain
1:22 AM 57.2 °F - 53.6 °F 88% 29.95 in 8.0 mi South 21.9 mph 28.8 mph 0.01 in Rain Light Rain
1:50 AM 55.4 °F - 53.6 °F 94% 29.97 in 2.5 mi SSW 16.1 mph - 0.06 in Rain Heavy Rain
1:54 AM 55.9 °F - 54.0 °F 93% 29.96 in 2.5 mi SSW 16.1 mph - 0.09 in Rain Heavy Rain
2:00 AM 55.4 °F - 53.6 °F 94% 29.97 in 3.0 mi SSW 13.8 mph - 0.02 in Rain Rain
2:08 AM 55.4 °F - 55.4 °F 100% 29.97 in 3.0 mi SSW 15.0 mph - 0.06 in Rain Rain
2:54 AM 55.9 °F - 55.0 °F 97% 29.96 in 3.0 mi SSW 8.1 mph - 0.18 in Rain Light Rain
3:01 AM 55.4 °F - 55.4 °F 100% 29.97 in 2.5 mi SSW 9.2 mph - 0.02 in Rain Rain
3:10 AM 53.6 °F - 51.8 °F 94% 29.98 in 3.0 mi WNW 15.0 mph - 0.05 in Rain Rain
3:26 AM 51.8 °F - 50.0 °F 94% 29.97 in 4.0 mi WNW 9.2 mph - 0.09 in Rain Rain
3:54 AM 51.1 °F - 50.0 °F 96% 29.96 in 3.0 mi West 4.6 mph - 0.15 in Rain Rain
4:25 AM 51.8 °F - 50.0 °F 94% 29.97 in 3.0 mi West 8.1 mph - 0.10 in Rain Rain
4:50 AM 51.8 °F - 50.0 °F 94% 29.98 in 4.0 mi West 8.1 mph - 0.15 in Rain Rain
4:54 AM 51.1 °F - 50.0 °F 96% 29.98 in 4.0 mi West 9.2 mph - 0.16 in Rain Rain
5:08 AM 48.2 °F - 46.4 °F 93% 29.99 in 5.0 mi WNW 19.6 mph 28.8 mph 0.03 in Rain Rain
5:54 AM 46.0 °F 39.6 °F 44.1 °F 93% 30.03 in 10.0 mi West 15.0 mph - 0.08 in Rain Light Rain
6:00 AM 44.6 °F 37.8 °F 44.6 °F 100% 30.03 in 10.0 mi WNW 15.0 mph - 0.00 in Rain Light Rain
6:38 AM 42.8 °F 36.2 °F 41.0 °F 93% 30.03 in 8.0 mi WNW 12.7 mph - 0.02 in Rain Light Rain
6:54 AM 43.0 °F 36.0 °F 41.0 °F 93% 30.05 in 10.0 mi WNW 13.8 mph - 0.03 in Rain Light Rain
7:54 AM 39.9 °F 30.8 °F 37.9 °F 93% 30.10 in 10.0 mi WNW 18.4 mph - 0.04 in Rain Light Rain
8:54 AM 37.0 °F 27.4 °F 36.0 °F 96% 30.14 in 10.0 mi WNW 17.3 mph 24.2 mph 0.03 in Rain Light Rain
9:23 AM 35.6 °F 27.1 °F 33.8 °F 93% 30.15 in 1.8 mi West 12.7 mph 23.0 mph 0.01 in Rain , Snow Light Snow
9:36 AM 33.8 °F 23.5 °F 32.0 °F 93% 30.17 in 0.5 mi West 16.1 mph 23.0 mph 0.03 in Snow Light Snow
9:54 AM 33.1 °F 23.9 °F 32.0 °F 96% 30.19 in 0.5 mi WSW 12.7 mph - 0.05 in Snow Light Snow
10:21 AM 33.8 °F 25.3 °F 32.0 °F 93% 30.18 in 7.0 mi West 11.5 mph - 0.02 in Snow Light Snow
10:34 AM 33.8 °F 23.2 °F 30.2 °F 87% 30.18 in 9.0 mi West 17.3 mph - 0.02 in   Overcast
10:54 AM 33.1 °F 22.6 °F 30.0 °F 89% 30.20 in 10.0 mi WSW 16.1 mph - 0.02 in   Overcast
11:37 AM 35.6 °F 25.9 °F 28.4 °F 75% 30.20 in 10.0 mi WNW 16.1 mph - N/A   Mostly Cloudy
11:54 AM 34.0 °F 23.0 °F 28.9 °F 82% 30.21 in 10.0 mi West 18.4 mph - N/A   Mostly Cloudy
12:50 PM 37.4 °F 28.5 °F 28.4 °F 70% 30.20 in 10.0 mi West 15.0 mph 25.3 mph N/A   Scattered Clouds
12:54 PM 37.0 °F 27.4 °F 28.9 °F 73% 30.21 in 10.0 mi WSW 17.3 mph 24.2 mph N/A   Scattered Clouds
1:54 PM 39.0 °F 29.3 °F 26.1 °F 60% 30.22 in 10.0 mi West 19.6 mph 25.3 mph N/A   Partly Cloudy
2:54 PM 39.0 °F 29.0 °F 21.9 °F 50% 30.22 in 10.0 mi West 20.7 mph 28.8 mph N/A   Partly Cloudy
3:54 PM 39.9 °F 30.8 °F 25.0 °F 55% 30.24 in 10.0 mi West 18.4 mph 23.0 mph N/A   Partly Cloudy
4:54 PM 37.0 °F 28.5 °F 24.1 °F 59% 30.27 in 10.0 mi West 13.8 mph - N/A   Partly Cloudy
5:54 PM 36.0 °F 26.0 °F 24.1 °F 62% 30.30 in 10.0 mi West 17.3 mph 21.9 mph N/A   Partly Cloudy
6:54 PM 34.0 °F 26.6 °F 24.1 °F 67% 30.33 in 10.0 mi West 9.2 mph - N/A   Clear
7:54 PM 33.1 °F 25.5 °F 25.0 °F 72% 30.35 in 10.0 mi WSW 9.2 mph - N/A   Clear
8:54 PM 32.0 °F 24.8 °F 24.1 °F 73% 30.38 in 10.0 mi WSW 8.1 mph - N/A   Clear
9:54 PM 30.0 °F 23.2 °F 24.1 °F 79% 30.39 in 10.0 mi SW 6.9 mph - N/A   Clear
10:54 PM 30.9 °F 22.8 °F 24.1 °F 76% 30.39 in 10.0 mi WSW 9.2 mph - N/A   Clear
11:54 PM 30.0 °F 22.4 °F 24.1 °F 79% 30.40 in 10.0 mi WSW 8.1 mph - N/A   Clear